Terminal Aerodrome Forecast
Issued by NWS Blacksburg, VA

Home | Current Version | Previous Version | Text Only | Print | Product List | Glossary On
Versions: 1 2 3 4 5 6 7 8 9 10 11 12 13 14 15 16 17 18 19 20 21 22 23 24 25 26
000
FTUS41 KRNK 312328
TAFROA
TAF
KROA 312328Z 0100/0124 29004KT P6SM OVC250
     FM010700 28003KT P6SM OVC080
     FM011700 17006KT P6SM BKN140
     FM012200 17008KT P6SM BKN050=

USA.gov is the U.S. government's official web portal to all federal, state and local government web resources and services.